Location: Fours
(44.3167°N, 6.7000°E)
Time: 09:28:42
(UTC+00:00)

CSL-04 Rocket - Pass Details

Date: 16 October 2021
Orbit: 805 x 860 km, 98.9° (Epoch: 02 December)

Event Time Altitude Azimuth Distance (km) Brightness Sun altitude
Exits shadow 19:30:13 34° 205° (SSW) 1,372 4.8 -29.7°
Maximum altitude 19:32:17 51° 260° (W) 1,068 4.4 -30.0°
Drops below altitude 10° 19:37:42 10° 336° (NNW) 2,504 6.6 -30.9°
Sets 19:40:11 0° 342° (NNW) 3,448 7.4 -31.4°
